Bow Valley, Alberta

10:14 PM MDT on May 25, 2017 (GMT -0600)
Bow Valley

Weather History for CWXA - January, 2013

Change the Weather History Date:

Wednesday, January 2, 2013

  Actual Average Record
Temperature  
Mean Temperature 19 °F -  
Max Temperature 27 °F - - ()
Min Temperature 11 °F - - ()
Degree Days  
Heating Degree Days 46    
Moisture  
Dew Point 7 °F    
Average Humidity 59    
Maximum Humidity 71    
Minimum Humidity 35    
Precipitation  
Precipitation 0.00 in - - ()
Sea Level Pressure  
Sea Level Pressure 30.36 in    
Wind  
Wind Speed 12 mph ()    
Max Wind Speed 23 mph    
Max Gust Speed 36 mph    
T = Trace of Precipitation, MM = Missing Value Source: Averaged Metar Reports

Daily Weather History Graph

Daily Weather History Graph

Search for Another Location

Airport or City:

Trip Planner

Search our weather history database for the weather conditions in past years. The results will help you decide how hot, cold, wet, or windy it might be!

Date:

Astronomy

Jan. 02, 2013 Rise Set
Actual Time 8:43 AM MST 4:45 PM MST
Civil Twilight 8:04 AM MST 5:24 PM MST
Nautical Twilight 7:21 AM MST 6:07 PM MST
Astronomical Twilight 6:41 AM MST 6:47 PM MST
Moon 11:04 PM MST (1/2) 10:49 AM MST (1/2)
Length of Visible Light 9h 20m
Length of Day
8h 02m
Waning Gibbous, 74% of the Moon is Illuminated
Jan 2
Waning Gibbous
Jan 4
Last Quarter
Jan 11
New
Jan 18
First Quarter
Jan 26
Full

Hourly Weather History & Observations

Time (MST) Temp. Windchill Dew Point Humidity Pressure Visibility Wind Dir Wind Speed Gust Speed Precip Events Conditions
12:00 AM 15.3 °F -0.4 °F 6.4 °F 68% 30.41 in - WSW 16.1 mph 26.5 mph N/A   Unknown
1:00 AM 15.1 °F 2.5 °F 6.3 °F 68% 30.41 in - SW 10.4 mph 20.7 mph N/A   Unknown
2:00 AM 13.8 °F 1.0 °F 5.9 °F 71% 30.41 in - SW 10.4 mph 21.9 mph N/A   Unknown
3:00 AM 13.8 °F 1.0 °F 5.4 °F 69% 30.40 in - SW 10.4 mph 19.6 mph N/A   Unknown
4:00 AM 13.3 °F -1.1 °F 5.2 °F 70% 30.40 in - SW 12.7 mph 28.8 mph N/A   Unknown
5:00 AM 12 °F - 4 °F 59% 30.42 in - WSW 18.4 mph - -  
5:00 AM 12.4 °F -5.1 °F 4.3 °F 70% 30.42 in - WSW 18.4 mph 34.5 mph N/A   Unknown
6:00 AM 13.3 °F -0.5 °F 4.6 °F 68% 30.40 in - SW 11.5 mph 20.7 mph N/A   Unknown
7:00 AM 13.1 °F -1.4 °F 4.3 °F 68% 30.40 in - SW 12.7 mph 24.2 mph N/A   Unknown
8:00 AM 13.1 °F -1.4 °F 4.3 °F 68% 30.42 in - SW 12.7 mph 31.1 mph N/A   Unknown
9:00 AM 14.0 °F -2.0 °F 3.9 °F 64% 30.43 in - SW 16.1 mph 31.1 mph N/A   Unknown
10:00 AM 12.0 °F -7.3 °F 3.9 °F 70% 30.43 in - WSW 23.0 mph 35.7 mph N/A   Unknown
11:00 AM 14 °F - 4 °F 52% 30.44 in - WSW 17.3 mph - -  
11:00 AM 13.6 °F -3.0 °F 4.3 °F 66% 30.44 in - WSW 17.3 mph 31.1 mph N/A   Unknown
12:00 PM 19.4 °F 7.2 °F 5.7 °F 55% 30.39 in - SW 11.5 mph 21.9 mph N/A   Unknown
1:00 PM 19.9 °F 7.3 °F 6.4 °F 56% 30.35 in - SW 12.7 mph 25.3 mph N/A   Unknown
2:00 PM 22.8 °F 10.9 °F 7.7 °F 52% 30.33 in - WSW 12.7 mph 21.9 mph N/A   Unknown
3:00 PM 23.0 °F 11.1 °F 8.4 °F 54% 30.31 in - WSW 12.7 mph 24.2 mph N/A   Unknown
4:00 PM 24.8 °F 13.4 °F 9.3 °F 52% 30.32 in - WSW 12.7 mph 24.2 mph N/A   Unknown
5:00 PM 26 °F - 9 °F 35% 30.32 in - SW 8.1 mph - -  
6:00 PM 25.7 °F 18.0 °F 9.1 °F 50% 30.29 in - SW 6.9 mph 21.9 mph N/A   Unknown
7:00 PM 23.4 °F 10.6 °F 9.3 °F 55% 30.29 in - WSW 15.0 mph 26.5 mph N/A   Unknown
9:00 PM 23.7 °F 13.3 °F 9.7 °F 55% 30.27 in - SW 10.4 mph 21.9 mph N/A   Unknown
10:00 PM 23.4 °F 11.6 °F 9.7 °F 56% 30.24 in - WSW 12.7 mph 23.0 mph N/A   Unknown
11:00 PM 24 °F - 9 °F 38% 30.22 in - WSW 12.7 mph - -  
11:00 PM 23.9 °F 12.3 °F 9.0 °F 53% 30.22 in - WSW 12.7 mph 18.4 mph N/A   Unknown